Time,TemperatureF,DewpointF,PressureIn,WindDirection,WindDirectionDegrees,WindSpeedMPH,WindSpeedGustMPH,Humidity,HourlyPrecipIn,Conditions,Clouds,dailyrainin,SoftwareType,DateUTC
2013-01-28 00:00:00,10.8,-4.2,28.66,SE,135,1.0,2.0,50,0.00,,,0.00,meteohub,2013-01-28 05:00:00,
2013-01-28 00:01:00,10.8,-4.2,28.66,SE,135,2.0,2.0,50,0.00,,,0.00,meteohub,2013-01-28 05:01:00,
2013-01-28 00:04:00,10.6,-4.4,28.66,SE,135,0.0,2.0,50,0.00,,,0.00,meteohub,2013-01-28 05:04:00,
2013-01-28 00:10:00,10.6,-4.4,28.66,SE,135,1.0,2.0,50,0.00,,,0.00,meteohub,2013-01-28 05:10:00,
2013-01-28 00:15:00,10.4,-4.5,28.66,SW,225,1.0,2.0,50,0.00,,,0.00,meteohub,2013-01-28 05:15:00,
2013-01-28 00:20:00,10.2,-6.9,28.66,SW,225,0.0,2.0,45,0.00,,,0.00,meteohub,2013-01-28 05:20:00,
2013-01-28 00:25:00,10.2,-6.9,28.65,SW,225,1.0,2.0,45,0.00,,,0.00,meteohub,2013-01-28 05:25:00,
2013-01-28 00:30:00,10.2,-6.9,28.65,East,90,2.0,2.0,45,0.00,,,0.00,meteohub,2013-01-28 05:30:00,
2013-01-28 00:35:00,10.2,-6.5,28.65,East,90,0.0,2.0,46,0.00,,,0.00,meteohub,2013-01-28 05:35:00,
2013-01-28 00:40:00,10.2,-6.5,28.65,East,90,0.0,2.0,46,0.00,,,0.00,meteohub,2013-01-28 05:40:00,
2013-01-28 00:45:00,10.2,-6.5,28.65,East,90,2.0,2.0,46,0.00,,,0.00,meteohub,2013-01-28 05:45:00,
2013-01-28 00:51:00,10.4,-4.5,28.65,South,180,1.0,2.0,50,0.00,,,0.00,meteohub,2013-01-28 05:51:00,
2013-01-28 00:56:00,10.6,-4.4,28.64,South,180,2.0,2.0,50,0.00,,,0.00,meteohub,2013-01-28 05:56:00,
2013-01-28 01:02:00,10.8,-3.8,28.64,SE,135,3.0,3.0,51,0.00,,,0.00,meteohub,2013-01-28 06:02:00,
2013-01-28 01:07:00,10.9,-3.3,28.63,South,180,2.0,3.0,52,0.00,,,0.00,meteohub,2013-01-28 06:07:00,
2013-01-28 01:12:00,10.9,-3.3,28.64,SW,225,2.0,3.0,52,0.00,,,0.00,meteohub,2013-01-28 06:12:00,
2013-01-28 01:17:00,11.1,-3.1,28.64,SE,135,2.0,5.0,52,0.00,,,0.00,meteohub,2013-01-28 06:17:00,
2013-01-28 01:22:00,11.3,-3.3,28.64,SW,225,1.0,5.0,51,0.00,,,0.00,meteohub,2013-01-28 06:22:00,
2013-01-28 01:28:00,11.5,-3.1,28.63,SE,135,1.0,5.0,51,0.00,,,0.00,meteohub,2013-01-28 06:28:00,
2013-01-28 01:33:00,11.3,-3.3,28.64,West,270,1.0,4.0,51,0.00,,,0.00,meteohub,2013-01-28 06:33:00,
2013-01-28 01:38:00,11.7,-2.9,28.63,SE,135,2.0,2.0,51,0.00,,,0.00,meteohub,2013-01-28 06:38:00,
2013-01-28 01:43:00,11.8,-2.4,28.63,East,90,2.0,2.0,52,0.00,,,0.00,meteohub,2013-01-28 06:43:00,
2013-01-28 01:48:00,12.2,-2.6,28.63,SE,135,2.0,2.0,51,0.00,,,0.00,meteohub,2013-01-28 06:48:00,
2013-01-28 01:53:00,12.4,-2.4,28.63,South,180,2.0,3.0,51,0.00,,,0.00,meteohub,2013-01-28 06:53:00,
2013-01-28 01:59:00,12.6,-2.2,28.63,SE,135,4.0,4.0,51,0.00,,,0.00,meteohub,2013-01-28 06:59:00,
2013-01-28 02:04:00,12.6,-2.6,28.62,SE,135,3.0,4.0,50,0.00,,,0.00,meteohub,2013-01-28 07:04:00,
2013-01-28 02:09:00,12.9,-2.6,28.62,SSW,203,4.0,4.0,49,0.00,,,0.00,meteohub,2013-01-28 07:09:00,
2013-01-28 02:14:00,12.9,-2.6,28.62,South,180,2.0,4.0,49,0.00,,,0.00,meteohub,2013-01-28 07:14:00,
2013-01-28 02:19:00,13.3,-2.4,28.62,SW,225,0.0,4.0,49,0.00,,,0.00,meteohub,2013-01-28 07:19:00,
2013-01-28 02:24:00,13.5,-2.6,28.62,South,180,2.0,4.0,48,0.00,,,0.00,meteohub,2013-01-28 07:24:00,
2013-01-28 02:29:00,13.3,-2.7,28.62,South,180,1.0,2.0,48,0.00,,,0.00,meteohub,2013-01-28 07:29:00,
2013-01-28 02:34:00,14.0,-2.6,28.61,SE,135,4.0,4.0,47,0.00,,,0.00,meteohub,2013-01-28 07:34:00,
2013-01-28 02:39:00,14.2,-2.7,28.61,SE,135,1.0,4.0,46,0.00,,,0.00,meteohub,2013-01-28 07:39:00,
2013-01-28 02:44:00,14.4,-2.6,28.61,South,180,2.0,4.0,46,0.00,,,0.00,meteohub,2013-01-28 07:44:00,
2013-01-28 02:49:00,14.4,-2.6,28.60,SE,135,0.0,4.0,46,0.00,,,0.00,meteohub,2013-01-28 07:49:00,
2013-01-28 02:55:00,14.4,-2.6,28.60,East,90,4.0,4.0,46,0.00,,,0.00,meteohub,2013-01-28 07:55:00,
2013-01-28 03:00:00,14.4,-2.6,28.60,SE,135,1.0,4.0,46,0.00,,,0.00,meteohub,2013-01-28 08:00:00,
2013-01-28 03:05:00,14.2,-2.7,28.60,West,270,2.0,4.0,46,0.00,,,0.00,meteohub,2013-01-28 08:05:00,
2013-01-28 03:10:00,14.2,-2.7,28.60,West,270,1.0,4.0,46,0.00,,,0.00,meteohub,2013-01-28 08:10:00,
2013-01-28 03:15:00,14.5,-2.6,28.60,South,180,2.0,3.0,46,0.00,,,0.00,meteohub,2013-01-28 08:15:00,
2013-01-28 03:20:00,14.5,-2.6,28.60,NE,45,2.0,2.0,46,0.00,,,0.00,meteohub,2013-01-28 08:20:00,
2013-01-28 03:25:00,14.5,-2.6,28.59,East,90,0.0,2.0,46,0.00,,,0.00,meteohub,2013-01-28 08:25:00,
2013-01-28 03:30:00,14.5,-2.6,28.60,West,270,1.0,2.0,46,0.00,,,0.00,meteohub,2013-01-28 08:30:00,
2013-01-28 03:35:00,14.5,-2.6,28.60,West,270,0.0,2.0,46,0.00,,,0.00,meteohub,2013-01-28 08:35:00,
2013-01-28 03:40:00,14.7,-1.8,28.58,West,270,0.0,1.0,47,0.00,,,0.00,meteohub,2013-01-28 08:40:00,
2013-01-28 03:46:00,14.7,-1.8,28.59,East,90,0.0,1.0,47,0.00,,,0.00,meteohub,2013-01-28 08:46:00,
2013-01-28 03:51:00,15.3,-1.3,28.58,East,90,2.0,2.0,47,0.00,,,0.00,meteohub,2013-01-28 08:51:00,
2013-01-28 03:56:00,15.3,-1.3,28.58,NE,45,2.0,2.0,47,0.00,,,0.00,meteohub,2013-01-28 08:56:00,
2013-01-28 04:01:00,15.3,-1.3,28.58,West,270,0.0,2.0,47,0.00,,,0.00,meteohub,2013-01-28 09:01:00,
2013-01-28 04:06:00,15.3,-1.3,28.58,West,270,0.0,2.0,47,0.00,,,0.00,meteohub,2013-01-28 09:06:00,
2013-01-28 04:11:00,15.4,-1.1,28.58,NE,45,0.0,2.0,47,0.00,,,0.00,meteohub,2013-01-28 09:11:00,
2013-01-28 04:16:00,15.6,-0.9,28.58,North,0,1.0,2.0,47,0.00,,,0.00,meteohub,2013-01-28 09:16:00,
2013-01-28 04:21:00,15.3,-1.3,28.58,East,90,0.0,2.0,47,0.00,,,0.00,meteohub,2013-01-28 09:21:00,
2013-01-28 04:27:00,15.6,-0.9,28.58,East,90,0.0,2.0,47,0.00,,,0.00,meteohub,2013-01-28 09:27:00,
2013-01-28 04:32:00,15.6,-0.9,28.58,East,90,0.0,2.0,47,0.00,,,0.00,meteohub,2013-01-28 09:32:00,
2013-01-28 04:37:00,15.6,-0.9,28.57,North,0,0.0,2.0,47,0.00,,,0.00,meteohub,2013-01-28 09:37:00,
2013-01-28 04:42:00,15.6,-0.6,28.57,SW,225,0.0,2.0,48,0.00,,,0.00,meteohub,2013-01-28 09:42:00,
2013-01-28 04:47:00,15.6,-0.6,28.57,East,90,0.0,2.0,48,0.00,,,0.00,meteohub,2013-01-28 09:47:00,
2013-01-28 04:52:00,15.6,-0.6,28.56,SW,225,1.0,2.0,48,0.00,,,0.00,meteohub,2013-01-28 09:52:00,
2013-01-28 04:57:00,15.4,-0.8,28.56,West,270,1.0,2.0,48,0.00,,,0.00,meteohub,2013-01-28 09:57:00,
2013-01-28 05:02:00,15.6,-0.6,28.56,NW,315,2.0,2.0,48,0.00,,,0.00,meteohub,2013-01-28 10:02:00,
2013-01-28 05:07:00,15.8,-0.9,28.56,NW,315,1.0,2.0,47,0.00,,,0.00,meteohub,2013-01-28 10:07:00,
2013-01-28 05:12:00,16.0,-0.8,28.56,West,270,2.0,2.0,47,0.00,,,0.00,meteohub,2013-01-28 10:12:00,
2013-01-28 05:18:00,16.3,-0.4,28.55,West,270,0.0,2.0,47,0.00,,,0.00,meteohub,2013-01-28 10:18:00,
2013-01-28 05:23:00,16.0,-0.8,28.55,SE,135,1.0,2.0,47,0.00,,,0.00,meteohub,2013-01-28 10:23:00,
2013-01-28 05:28:00,16.2,-0.6,28.56,NE,45,0.0,2.0,47,0.00,,,0.00,meteohub,2013-01-28 10:28:00,
2013-01-28 05:33:00,16.2,-0.6,28.56,NE,45,1.0,2.0,47,0.00,,,0.00,meteohub,2013-01-28 10:33:00,
2013-01-28 05:38:00,16.2,-0.6,28.56,NW,315,0.0,2.0,47,0.00,,,0.00,meteohub,2013-01-28 10:38:00,
2013-01-28 05:43:00,16.2,-0.6,28.56,North,0,2.0,3.0,47,0.00,,,0.00,meteohub,2013-01-28 10:43:00,
2013-01-28 05:48:00,16.3,-0.4,28.56,North,0,2.0,3.0,47,0.00,,,0.00,meteohub,2013-01-28 10:48:00,
2013-01-28 05:53:00,16.3,-0.4,28.57,North,0,2.0,3.0,47,0.00,,,0.00,meteohub,2013-01-28 10:53:00,
2013-01-28 05:58:00,16.3,-0.4,28.56,SE,135,1.0,3.0,47,0.00,,,0.00,meteohub,2013-01-28 10:58:00,
2013-01-28 06:03:00,16.5,-0.2,28.55,South,180,0.0,2.0,47,0.00,,,0.00,meteohub,2013-01-28 11:03:00,
2013-01-28 06:09:00,16.5,-0.2,28.55,NE,45,2.0,2.0,47,0.00,,,0.00,meteohub,2013-01-28 11:09:00,
2013-01-28 06:14:00,16.5,-0.2,28.55,SE,135,2.0,2.0,47,0.00,,,0.00,meteohub,2013-01-28 11:14:00,
2013-01-28 06:19:00,16.5,0.3,28.55,West,270,2.0,2.0,48,0.00,,,0.00,meteohub,2013-01-28 11:19:00,
2013-01-28 06:24:00,16.7,0.5,28.56,NE,45,2.0,2.0,48,0.00,,,0.00,meteohub,2013-01-28 11:24:00,
2013-01-28 06:29:00,16.7,0.5,28.55,East,90,2.0,2.0,48,0.00,,,0.00,meteohub,2013-01-28 11:29:00,
2013-01-28 06:34:00,16.9,0.5,28.55,East,90,1.0,2.0,48,0.00,,,0.00,meteohub,2013-01-28 11:34:00,
2013-01-28 06:39:00,16.9,0.5,28.55,South,180,1.0,2.0,48,0.00,,,0.00,meteohub,2013-01-28 11:39:00,
2013-01-28 06:44:00,17.1,0.7,28.55,South,180,1.0,2.0,48,0.00,,,0.00,meteohub,2013-01-28 11:44:00,
2013-01-28 06:50:00,17.1,0.7,28.55,South,180,1.0,2.0,48,0.00,,,0.00,meteohub,2013-01-28 11:50:00,
2013-01-28 06:55:00,17.2,0.9,28.54,East,90,2.0,2.0,48,0.00,,,0.00,meteohub,2013-01-28 11:55:00,
2013-01-28 07:00:00,17.4,0.7,28.54,SW,225,1.0,2.0,47,0.00,,,0.00,meteohub,2013-01-28 12:00:00,
2013-01-28 07:05:00,17.4,0.7,28.54,SW,225,1.0,2.0,47,0.00,,,0.00,meteohub,2013-01-28 12:05:00,
2013-01-28 07:10:00,17.6,0.3,28.54,West,270,1.0,2.0,46,0.00,,,0.00,meteohub,2013-01-28 12:10:00,
2013-01-28 07:15:00,17.6,0.3,28.54,NW,315,0.0,2.0,46,0.00,,,0.00,meteohub,2013-01-28 12:15:00,
2013-01-28 07:20:00,17.8,0.5,28.55,West,270,2.0,2.0,46,0.00,,,0.00,meteohub,2013-01-28 12:20:00,
2013-01-28 07:25:00,18.0,0.7,28.54,North,0,2.0,3.0,46,0.00,,,0.00,meteohub,2013-01-28 12:25:00,
2013-01-28 07:30:00,18.0,0.7,28.53,SE,135,1.0,3.0,46,0.00,,,0.00,meteohub,2013-01-28 12:30:00,
2013-01-28 07:36:00,18.0,0.7,28.53,South,180,2.0,3.0,46,0.00,,,0.00,meteohub,2013-01-28 12:36:00,
2013-01-28 07:41:00,18.0,0.7,28.53,SW,225,2.0,5.0,46,0.00,,,0.00,meteohub,2013-01-28 12:41:00,
2013-01-28 07:46:00,18.1,0.3,28.53,NW,315,2.0,5.0,45,0.00,,,0.00,meteohub,2013-01-28 12:46:00,
2013-01-28 07:51:00,18.3,0.5,28.53,SE,135,1.0,5.0,45,0.00,,,0.00,meteohub,2013-01-28 12:51:00,
2013-01-28 07:56:00,18.3,0.5,28.53,North,0,2.0,3.0,45,0.00,,,0.00,meteohub,2013-01-28 12:56:00,
2013-01-28 08:01:00,18.7,0.9,28.53,NE,45,2.0,3.0,45,0.00,,,0.00,meteohub,2013-01-28 13:01:00,
2013-01-28 08:06:00,18.7,0.9,28.53,NE,45,0.0,3.0,45,0.00,,,0.00,meteohub,2013-01-28 13:06:00,
2013-01-28 08:11:00,18.7,0.9,28.53,West,270,2.0,2.0,45,0.00,,,0.00,meteohub,2013-01-28 13:11:00,
2013-01-28 08:16:00,19.0,0.7,28.53,West,270,1.0,2.0,44,0.00,,,0.00,meteohub,2013-01-28 13:16:00,
2013-01-28 08:21:00,19.0,0.7,28.53,East,90,2.0,2.0,44,0.00,,,0.00,meteohub,2013-01-28 13:21:00,
2013-01-28 08:26:00,19.2,0.9,28.53,East,90,2.0,2.0,44,0.00,,,0.00,meteohub,2013-01-28 13:26:00,
2013-01-28 08:31:00,19.4,2.8,28.52,South,180,2.0,2.0,48,0.00,,,0.00,meteohub,2013-01-28 13:31:00,
2013-01-28 08:37:00,19.6,3.0,28.52,SE,135,2.0,2.0,48,0.00,,,0.00,meteohub,2013-01-28 13:37:00,
2013-01-28 08:42:00,19.8,2.8,28.52,SW,225,2.0,4.0,47,0.00,,,0.00,meteohub,2013-01-28 13:42:00,
2013-01-28 08:47:00,19.8,2.8,28.52,East,90,2.0,4.0,47,0.00,,,0.00,meteohub,2013-01-28 13:47:00,
2013-01-28 08:52:00,19.9,3.0,28.51,East,90,2.0,4.0,47,0.00,,,0.00,meteohub,2013-01-28 13:52:00,
2013-01-28 08:57:00,20.1,3.2,28.51,East,90,2.0,4.0,47,0.00,,,0.00,meteohub,2013-01-28 13:57:00,
2013-01-28 09:02:00,20.5,3.0,28.50,East,90,2.0,2.0,46,0.00,,,0.00,meteohub,2013-01-28 14:02:00,
2013-01-28 09:07:00,20.7,3.2,28.50,NE,45,4.0,4.0,46,0.00,,,0.00,meteohub,2013-01-28 14:07:00,
2013-01-28 09:12:00,21.0,3.6,28.50,North,0,0.0,4.0,46,0.00,,,0.00,meteohub,2013-01-28 14:12:00,
2013-01-28 09:17:00,21.4,3.4,28.50,NW,315,2.0,4.0,45,0.00,,,0.00,meteohub,2013-01-28 14:17:00,
2013-01-28 09:22:00,21.7,3.7,28.50,North,0,3.0,4.0,45,0.00,,,0.00,meteohub,2013-01-28 14:22:00,
2013-01-28 09:27:00,22.3,4.1,28.49,ESE,113,4.0,4.0,45,0.00,,,0.00,meteohub,2013-01-28 14:27:00,
2013-01-28 09:32:00,23.0,6.3,28.49,South,180,7.0,7.0,48,0.00,,,0.00,meteohub,2013-01-28 14:32:00,
2013-01-28 09:37:00,23.4,8.8,28.48,ESE,113,3.0,8.0,53,0.00,,,0.00,meteohub,2013-01-28 14:37:00,
2013-01-28 09:42:00,23.5,9.7,28.48,NE,45,4.0,8.0,55,0.00,,,0.00,meteohub,2013-01-28 14:42:00,
2013-01-28 09:47:00,23.5,10.2,28.48,ESE,113,4.0,8.0,56,0.00,,,0.00,meteohub,2013-01-28 14:47:00,
2013-01-28 09:52:00,23.7,11.1,28.48,SE,135,2.0,4.0,58,0.00,,,0.00,meteohub,2013-01-28 14:52:00,
2013-01-28 09:57:00,23.9,11.7,28.48,North,0,4.0,4.0,59,0.00,,,0.00,meteohub,2013-01-28 14:57:00,
2013-01-28 10:02:00,24.1,12.2,28.47,NE,45,8.0,8.0,60,0.00,,,0.00,meteohub,2013-01-28 15:02:00,
2013-01-28 10:07:00,23.9,12.0,28.47,South,180,4.0,8.0,60,0.00,,,0.00,meteohub,2013-01-28 15:07:00,
2013-01-28 10:12:00,23.9,12.0,28.46,South,180,3.0,8.0,60,0.00,,,0.00,meteohub,2013-01-28 15:12:00,
2013-01-28 10:17:00,24.3,12.7,28.46,SW,225,2.0,8.0,61,0.00,,,0.00,meteohub,2013-01-28 15:17:00,
2013-01-28 10:22:00,24.4,12.9,28.45,South,180,4.0,8.0,61,0.00,,,0.00,meteohub,2013-01-28 15:22:00,
2013-01-28 10:27:00,24.4,13.3,28.45,SSE,158,5.0,7.0,62,0.00,,,0.00,meteohub,2013-01-28 15:27:00,
2013-01-28 10:32:00,24.4,13.6,28.44,SE,135,4.0,8.0,63,0.00,,,0.00,meteohub,2013-01-28 15:32:00,
2013-01-28 10:37:00,24.6,14.5,28.45,SSW,203,5.0,8.0,65,0.00,,,0.00,meteohub,2013-01-28 15:37:00,
2013-01-28 10:42:00,24.8,14.7,28.44,SE,135,11.0,11.0,65,0.00,,,0.00,meteohub,2013-01-28 15:42:00,
2013-01-28 10:47:00,24.8,14.7,28.43,South,180,3.0,11.0,65,0.00,,,0.00,meteohub,2013-01-28 15:47:00,
2013-01-28 10:52:00,24.6,15.3,28.42,ESE,113,7.0,12.0,67,0.00,,,0.00,meteohub,2013-01-28 15:52:00,
2013-01-28 10:57:00,24.6,15.6,28.43,South,180,3.0,12.0,68,0.00,,,0.00,meteohub,2013-01-28 15:57:00,
2013-01-28 11:02:00,24.8,15.8,28.42,SE,135,8.0,12.0,68,0.00,,,0.00,meteohub,2013-01-28 16:02:00,
2013-01-28 11:07:00,24.8,15.8,28.43,West,270,6.0,12.0,68,0.00,,,0.00,meteohub,2013-01-28 16:07:00,
2013-01-28 11:12:00,25.2,16.3,28.43,SE,135,10.0,12.0,69,0.00,,,0.00,meteohub,2013-01-28 16:12:00,
2013-01-28 11:17:00,25.5,16.2,28.41,SSE,158,4.0,15.0,67,0.00,,,0.00,meteohub,2013-01-28 16:17:00,
2013-01-28 11:22:00,25.7,15.6,28.41,NNW,338,11.0,15.0,65,0.00,,,0.00,meteohub,2013-01-28 16:22:00,
2013-01-28 11:27:00,26.1,16.0,28.40,South,180,9.0,15.0,65,0.00,,,0.00,meteohub,2013-01-28 16:27:00,
2013-01-28 11:32:00,26.1,16.3,28.40,WSW,248,8.0,12.0,66,0.00,,,0.00,meteohub,2013-01-28 16:32:00,
2013-01-28 11:37:00,25.7,16.3,28.40,South,180,7.0,12.0,67,0.00,,,0.00,meteohub,2013-01-28 16:37:00,
2013-01-28 11:42:00,25.7,16.9,28.39,SE,135,8.0,12.0,69,0.00,,,0.00,meteohub,2013-01-28 16:42:00,
2013-01-28 11:47:00,25.7,17.2,28.38,North,0,8.0,12.0,70,0.00,,,0.00,meteohub,2013-01-28 16:47:00,
2013-01-28 11:52:00,25.7,17.6,28.38,South,180,7.0,11.0,71,0.00,,,0.00,meteohub,2013-01-28 16:52:00,
2013-01-28 11:57:00,25.9,17.8,28.38,SW,225,11.0,11.0,71,0.00,,,0.00,meteohub,2013-01-28 16:57:00,
2013-01-28 12:02:00,26.1,18.0,28.37,East,90,8.0,11.0,71,0.00,,,0.00,meteohub,2013-01-28 17:02:00,
2013-01-28 12:07:00,26.2,17.8,28.36,SE,135,4.0,11.0,70,0.00,,,0.00,meteohub,2013-01-28 17:07:00,
2013-01-28 12:12:00,26.6,17.4,28.36,SE,135,5.0,11.0,68,0.00,,,0.00,meteohub,2013-01-28 17:12:00,
2013-01-28 12:17:00,26.6,17.4,28.35,South,180,6.0,11.0,68,0.00,,,0.00,meteohub,2013-01-28 17:17:00,
2013-01-28 12:22:00,26.4,17.2,28.35,SE,135,4.0,11.0,68,0.00,,,0.00,meteohub,2013-01-28 17:22:00,
2013-01-28 12:27:00,26.6,17.1,28.34,SSE,158,11.0,11.0,67,0.00,,,0.00,meteohub,2013-01-28 17:27:00,
2013-01-28 12:32:00,26.4,16.9,28.34,SW,225,9.0,11.0,67,0.00,,,0.00,meteohub,2013-01-28 17:32:00,
2013-01-28 12:37:00,26.6,16.7,28.35,South,180,5.0,14.0,66,0.00,,,0.00,meteohub,2013-01-28 17:37:00,
2013-01-28 12:42:00,26.6,16.3,28.34,South,180,9.0,14.0,65,0.00,,,0.00,meteohub,2013-01-28 17:42:00,
2013-01-28 12:47:00,26.8,16.5,28.32,East,90,3.0,14.0,65,0.00,,,0.00,meteohub,2013-01-28 17:47:00,
2013-01-28 12:53:00,27.0,16.7,28.32,SE,135,2.0,14.0,65,0.00,,,0.00,meteohub,2013-01-28 17:53:00,
2013-01-28 12:58:00,27.0,16.3,28.31,SSE,158,8.0,9.0,64,0.00,,,0.00,meteohub,2013-01-28 17:58:00,
2013-01-28 13:03:00,26.6,16.0,28.31,SE,135,7.0,10.0,64,0.00,,,0.00,meteohub,2013-01-28 18:03:00,
2013-01-28 13:08:00,26.6,16.0,28.30,North,0,7.0,10.0,64,0.00,,,0.00,meteohub,2013-01-28 18:08:00,
2013-01-28 13:13:00,26.6,16.3,28.30,NW,315,6.0,10.0,65,0.00,,,0.00,meteohub,2013-01-28 18:13:00,
2013-01-28 13:18:00,26.8,16.5,28.28,South,180,11.0,11.0,65,0.00,,,0.00,meteohub,2013-01-28 18:18:00,
2013-01-28 13:23:00,27.0,17.1,28.27,South,180,14.0,14.0,66,0.00,,,0.00,meteohub,2013-01-28 18:23:00,
2013-01-28 13:28:00,27.3,17.4,28.26,SE,135,6.0,14.0,66,0.00,,,0.00,meteohub,2013-01-28 18:28:00,
2013-01-28 13:33:00,27.5,17.6,28.26,NE,45,10.0,14.0,66,0.00,,,0.00,meteohub,2013-01-28 18:33:00,
2013-01-28 13:38:00,27.5,17.2,28.26,SE,135,6.0,14.0,65,0.00,,,0.00,meteohub,2013-01-28 18:38:00,
2013-01-28 13:43:00,27.5,16.9,28.25,SE,135,7.0,10.0,64,0.00,,,0.00,meteohub,2013-01-28 18:43:00,
2013-01-28 13:48:00,27.5,16.5,28.25,East,90,6.0,10.0,63,0.00,,,0.00,meteohub,2013-01-28 18:48:00,
2013-01-28 13:54:00,27.5,16.5,28.24,South,180,8.0,14.0,63,0.00,,,0.00,meteohub,2013-01-28 18:54:00,
2013-01-28 13:59:00,27.7,16.7,28.25,South,180,12.0,15.0,63,0.00,,,0.00,meteohub,2013-01-28 18:59:00,
2013-01-28 14:04:00,28.0,17.1,28.26,West,270,2.0,15.0,63,0.00,,,0.00,meteohub,2013-01-28 19:04:00,
2013-01-28 14:09:00,27.9,16.5,28.25,North,0,3.0,15.0,62,0.00,,,0.00,meteohub,2013-01-28 19:09:00,
2013-01-28 14:14:00,28.0,16.7,28.25,NW,315,2.0,15.0,62,0.00,,,0.00,meteohub,2013-01-28 19:14:00,
2013-01-28 14:19:00,28.4,18.5,28.25,East,90,4.0,10.0,66,0.00,,,0.00,meteohub,2013-01-28 19:19:00,
2013-01-28 14:24:00,28.2,16.9,28.27,NE,45,6.0,8.0,62,0.00,,,0.00,meteohub,2013-01-28 19:24:00,
2013-01-28 14:29:00,27.9,16.5,28.27,SE,135,6.0,8.0,62,0.00,,,0.00,meteohub,2013-01-28 19:29:00,
2013-01-28 14:34:00,27.7,16.3,28.27,South,180,2.0,6.0,62,0.00,,,0.00,meteohub,2013-01-28 19:34:00,
2013-01-28 14:39:00,27.7,16.7,28.27,East,90,11.0,11.0,63,0.00,,,0.00,meteohub,2013-01-28 19:39:00,
2013-01-28 14:44:00,27.7,17.1,28.27,SE,135,4.0,11.0,64,0.00,,,0.00,meteohub,2013-01-28 19:44:00,
2013-01-28 14:49:00,27.7,17.4,28.26,South,180,11.0,11.0,65,0.00,,,0.00,meteohub,2013-01-28 19:49:00,
2013-01-28 14:55:00,27.7,17.4,28.27,SW,225,13.0,13.0,65,0.00,,,0.00,meteohub,2013-01-28 19:55:00,
2013-01-28 15:00:00,27.5,17.6,28.27,South,180,4.0,13.0,66,0.00,,,0.00,meteohub,2013-01-28 20:00:00,
2013-01-28 15:05:00,27.5,18.3,28.27,SE,135,6.0,13.0,68,0.00,,,0.00,meteohub,2013-01-28 20:05:00,
2013-01-28 15:10:00,27.7,18.9,28.27,North,0,3.0,13.0,69,0.00,,,0.00,meteohub,2013-01-28 20:10:00,
2013-01-28 15:15:00,28.0,19.6,28.27,NW,315,2.0,10.0,70,0.00,,,0.00,meteohub,2013-01-28 20:15:00,
2013-01-28 15:20:00,28.4,21.2,28.27,NNE,23,2.0,8.0,74,0.00,,,0.00,meteohub,2013-01-28 20:20:00,
2013-01-28 15:25:00,28.4,21.6,28.26,North,0,7.0,8.0,75,0.00,,,0.00,meteohub,2013-01-28 20:25:00,
2013-01-28 15:30:00,29.7,23.4,28.26,North,0,4.0,8.0,77,0.00,,,0.00,meteohub,2013-01-28 20:30:00,
2013-01-28 15:35:00,30.6,24.3,28.25,East,90,5.0,8.0,77,0.00,,,0.00,meteohub,2013-01-28 20:35:00,
2013-01-28 15:40:00,29.8,23.2,28.23,SW,225,5.0,9.0,76,0.00,,,0.00,meteohub,2013-01-28 20:40:00,
2013-01-28 15:45:00,29.5,22.5,28.24,South,180,2.0,9.0,75,0.00,,,0.00,meteohub,2013-01-28 20:45:00,
2013-01-28 15:50:00,29.5,22.5,28.25,SE,135,3.0,9.0,75,0.00,,,0.00,meteohub,2013-01-28 20:50:00,
2013-01-28 15:56:00,29.8,23.2,28.25,SW,225,2.0,7.0,76,0.00,,,0.00,meteohub,2013-01-28 20:56:00,
2013-01-28 16:01:00,29.8,23.2,28.24,NE,45,4.0,7.0,76,0.00,,,0.00,meteohub,2013-01-28 21:01:00,
2013-01-28 16:06:00,29.8,23.2,28.23,NW,315,2.0,8.0,76,0.00,,,0.00,meteohub,2013-01-28 21:06:00,
2013-01-28 16:11:00,29.8,23.2,28.23,North,0,8.0,8.0,76,0.00,,,0.00,meteohub,2013-01-28 21:11:00,
2013-01-28 16:16:00,31.1,25.0,28.22,NW,315,6.0,9.0,78,0.00,,,0.00,meteohub,2013-01-28 21:16:00,
2013-01-28 16:21:00,32.0,25.9,28.22,SW,225,3.0,9.0,78,0.00,,,0.00,meteohub,2013-01-28 21:21:00,
2013-01-28 16:26:00,32.2,25.7,28.22,NE,45,7.0,9.0,77,0.00,,,0.00,meteohub,2013-01-28 21:26:00,
2013-01-28 16:31:00,32.9,26.8,28.22,NW,315,1.0,9.0,78,0.00,,,0.00,meteohub,2013-01-28 21:31:00,
2013-01-28 16:36:00,32.9,26.4,28.23,North,0,4.0,8.0,77,0.00,,,0.00,meteohub,2013-01-28 21:36:00,
2013-01-28 16:41:00,33.1,26.6,28.24,NW,315,4.0,8.0,77,0.00,,,0.00,meteohub,2013-01-28 21:41:00,
2013-01-28 16:46:00,33.1,26.4,28.22,North,0,5.0,6.0,76,0.00,,,0.00,meteohub,2013-01-28 21:46:00,
2013-01-28 16:52:00,33.4,27.0,28.22,NW,315,7.0,9.0,77,0.00,,,0.00,meteohub,2013-01-28 21:52:00,
2013-01-28 16:57:00,34.2,27.7,28.21,NW,315,8.0,14.0,77,0.00,,,0.00,meteohub,2013-01-28 21:57:00,
2013-01-28 17:02:00,34.2,27.3,28.21,North,0,4.0,14.0,76,0.00,,,0.00,meteohub,2013-01-28 22:02:00,
2013-01-28 17:07:00,34.5,27.7,28.22,North,0,5.0,14.0,76,0.00,,,0.00,meteohub,2013-01-28 22:07:00,
2013-01-28 17:12:00,34.0,27.0,28.22,SW,225,4.0,9.0,75,0.00,,,0.00,meteohub,2013-01-28 22:12:00,
2013-01-28 17:17:00,33.6,26.6,28.22,North,0,3.0,8.0,75,0.00,,,0.00,meteohub,2013-01-28 22:17:00,
2013-01-28 17:22:00,34.5,28.0,28.21,NW,315,4.0,11.0,77,0.00,,,0.00,meteohub,2013-01-28 22:22:00,
2013-01-28 17:27:00,35.8,29.7,28.21,North,0,7.0,11.0,78,0.00,,,0.00,meteohub,2013-01-28 22:27:00,
2013-01-28 17:32:00,36.1,30.0,28.21,NW,315,7.0,11.0,78,0.00,,,0.00,meteohub,2013-01-28 22:32:00,
2013-01-28 17:37:00,35.8,29.3,28.21,North,0,10.0,10.0,77,0.00,,,0.00,meteohub,2013-01-28 22:37:00,
2013-01-28 17:42:00,35.8,28.9,28.21,North,0,8.0,10.0,76,0.00,,,0.00,meteohub,2013-01-28 22:42:00,
2013-01-28 17:47:00,35.6,28.8,28.20,NW,315,4.0,10.0,76,0.00,,,0.00,meteohub,2013-01-28 22:47:00,
2013-01-28 17:52:00,36.3,30.2,28.20,SW,225,4.0,11.0,78,0.00,,,0.00,meteohub,2013-01-28 22:52:00,
2013-01-28 17:57:00,36.5,30.4,28.20,NE,45,3.0,11.0,78,0.00,,,0.00,meteohub,2013-01-28 22:57:00,
2013-01-28 18:02:00,36.1,29.7,28.20,NE,45,4.0,11.0,77,0.00,,,0.00,meteohub,2013-01-28 23:02:00,
2013-01-28 18:07:00,35.8,28.9,28.21,North,0,8.0,8.0,76,0.00,,,0.00,meteohub,2013-01-28 23:07:00,
2013-01-28 18:12:00,35.8,28.9,28.22,NW,315,4.0,8.0,76,0.00,,,0.00,meteohub,2013-01-28 23:12:00,
2013-01-28 18:17:00,35.4,28.9,28.21,North,0,3.0,8.0,77,0.01,,,0.01,meteohub,2013-01-28 23:17:00,
2013-01-28 18:22:00,35.4,28.9,28.20,NNE,23,6.0,8.0,77,0.01,,,0.01,meteohub,2013-01-28 23:22:00,
2013-01-28 18:27:00,35.4,28.9,28.21,North,0,2.0,6.0,77,0.01,,,0.01,meteohub,2013-01-28 23:27:00,
2013-01-28 18:32:00,35.1,28.6,28.22,NW,315,4.0,6.0,77,0.01,,,0.01,meteohub,2013-01-28 23:32:00,
2013-01-28 18:37:00,35.1,28.6,28.21,West,270,2.0,6.0,77,0.01,,,0.01,meteohub,2013-01-28 23:37:00,
2013-01-28 18:42:00,34.7,28.2,28.22,NW,315,3.0,4.0,77,0.01,,,0.01,meteohub,2013-01-28 23:42:00,
2013-01-28 18:47:00,34.7,28.6,28.22,NW,315,3.0,4.0,78,0.02,,,0.02,meteohub,2013-01-28 23:47:00,
2013-01-28 18:52:00,34.5,28.4,28.22,NW,315,3.0,4.0,78,0.02,,,0.02,meteohub,2013-01-28 23:52:00,
2013-01-28 18:57:00,34.3,28.2,28.22,North,0,2.0,4.0,78,0.04,,,0.04,meteohub,2013-01-28 23:57:00,
2013-01-28 19:02:00,34.3,28.6,28.21,NE,45,1.0,4.0,79,0.04,,,0.04,meteohub,2013-01-29 00:02:00,
2013-01-28 19:07:00,34.2,28.4,28.22,West,270,2.0,3.0,79,0.04,,,0.04,meteohub,2013-01-29 00:07:00,
2013-01-28 19:12:00,34.2,28.4,28.21,West,270,2.0,2.0,79,0.02,,,0.04,meteohub,2013-01-29 00:12:00,
2013-01-28 19:17:00,34.0,28.2,28.21,SE,135,2.0,3.0,79,0.02,,,0.04,meteohub,2013-01-29 00:17:00,
2013-01-28 19:22:00,33.6,28.0,28.21,SE,135,2.0,3.0,80,0.02,,,0.04,meteohub,2013-01-29 00:22:00,
2013-01-28 19:27:00,33.6,28.0,28.22,West,270,2.0,3.0,80,0.02,,,0.04,meteohub,2013-01-29 00:27:00,
2013-01-28 19:32:00,33.4,27.9,28.21,SW,225,2.0,3.0,80,0.02,,,0.04,meteohub,2013-01-29 00:32:00,
2013-01-28 19:37:00,33.4,28.2,28.21,SW,225,3.0,4.0,81,0.02,,,0.04,meteohub,2013-01-29 00:37:00,
2013-01-28 19:42:00,33.4,28.2,28.21,SW,225,2.0,4.0,81,0.02,,,0.04,meteohub,2013-01-29 00:42:00,
2013-01-28 19:47:00,33.6,28.4,28.21,East,90,4.0,4.0,81,0.01,,,0.04,meteohub,2013-01-29 00:47:00,
2013-01-28 19:52:00,33.6,28.8,28.20,East,90,4.0,5.0,82,0.01,,,0.04,meteohub,2013-01-29 00:52:00,
2013-01-28 19:57:00,34.2,29.3,28.19,NE,45,2.0,5.0,82,0.01,,,0.05,meteohub,2013-01-29 00:57:00,
2013-01-28 20:02:00,34.5,29.8,28.19,SE,135,4.0,6.0,83,0.01,,,0.05,meteohub,2013-01-29 01:02:00,
2013-01-28 20:07:00,35.2,30.9,28.20,SE,135,3.0,6.0,84,0.01,,,0.05,meteohub,2013-01-29 01:07:00,
2013-01-28 20:12:00,35.6,30.9,28.19,East,90,2.0,6.0,83,0.01,,,0.05,meteohub,2013-01-29 01:12:00,
2013-01-28 20:17:00,36.1,31.5,28.19,NW,315,5.0,10.0,83,0.01,,,0.05,meteohub,2013-01-29 01:17:00,
2013-01-28 20:22:00,37.6,34.3,28.19,NW,315,9.0,11.0,88,0.01,,,0.05,meteohub,2013-01-29 01:22:00,
2013-01-28 20:27:00,38.3,34.7,28.19,NE,45,6.0,15.0,87,0.02,,,0.06,meteohub,2013-01-29 01:27:00,
2013-01-28 20:32:00,38.7,35.1,28.19,NE,45,10.0,15.0,87,0.02,,,0.06,meteohub,2013-01-29 01:32:00,
2013-01-28 20:37:00,38.7,34.9,28.19,North,0,5.0,15.0,86,0.02,,,0.06,meteohub,2013-01-29 01:37:00,
2013-01-28 20:42:00,38.8,34.7,28.19,WSW,248,13.0,15.0,85,0.02,,,0.06,meteohub,2013-01-29 01:42:00,
2013-01-28 20:47:00,38.8,34.3,28.19,North,0,8.0,15.0,84,0.02,,,0.06,meteohub,2013-01-29 01:47:00,
2013-01-28 20:52:00,39.0,34.5,28.19,NE,45,9.0,15.0,84,0.02,,,0.06,meteohub,2013-01-29 01:52:00,
2013-01-28 20:57:00,39.2,34.5,28.18,NE,45,9.0,15.0,83,0.01,,,0.06,meteohub,2013-01-29 01:57:00,
2013-01-28 21:02:00,39.6,34.9,28.18,NE,45,8.0,12.0,83,0.01,,,0.06,meteohub,2013-01-29 02:02:00,
2013-01-28 21:07:00,39.9,35.2,28.18,NW,315,2.0,13.0,83,0.01,,,0.06,meteohub,2013-01-29 02:07:00,
2013-01-28 21:12:00,40.1,35.1,28.17,NE,45,7.0,13.0,82,0.01,,,0.06,meteohub,2013-01-29 02:12:00,
2013-01-28 21:17:00,40.1,35.1,28.18,NW,315,7.0,13.0,82,0.01,,,0.06,meteohub,2013-01-29 02:17:00,
2013-01-28 21:22:00,40.3,35.2,28.17,NE,45,5.0,8.0,82,0.01,,,0.06,meteohub,2013-01-29 02:22:00,
2013-01-28 21:27:00,39.9,34.9,28.18,NW,315,10.0,10.0,82,0.00,,,0.06,meteohub,2013-01-29 02:27:00,
2013-01-28 21:32:00,40.6,36.0,28.18,NW,315,8.0,12.0,83,0.00,,,0.06,meteohub,2013-01-29 02:32:00,
2013-01-28 21:37:00,41.0,36.0,28.17,NE,45,9.0,12.0,82,0.00,,,0.06,meteohub,2013-01-29 02:37:00,
2013-01-28 21:42:00,40.8,35.8,28.17,West,270,6.0,12.0,82,0.00,,,0.06,meteohub,2013-01-29 02:42:00,
2013-01-28 21:47:00,40.5,35.4,28.18,NW,315,7.0,11.0,82,0.00,,,0.06,meteohub,2013-01-29 02:47:00,
2013-01-28 21:52:00,40.1,34.7,28.17,ESE,113,6.0,11.0,81,0.00,,,0.06,meteohub,2013-01-29 02:52:00,
2013-01-28 21:57:00,39.6,34.2,28.17,NE,45,7.0,11.0,81,0.00,,,0.06,meteohub,2013-01-29 02:57:00,
2013-01-28 22:02:00,39.6,34.5,28.17,NE,45,8.0,11.0,82,0.00,,,0.06,meteohub,2013-01-29 03:02:00,
2013-01-28 22:07:00,39.6,34.5,28.17,East,90,6.0,8.0,82,0.00,,,0.06,meteohub,2013-01-29 03:07:00,
2013-01-28 22:12:00,39.4,34.3,28.17,NNW,338,2.0,8.0,82,0.00,,,0.06,meteohub,2013-01-29 03:12:00,
2013-01-28 22:17:00,39.2,34.2,28.17,North,0,4.0,8.0,82,0.00,,,0.06,meteohub,2013-01-29 03:17:00,
2013-01-28 22:22:00,39.2,34.2,28.17,NE,45,11.0,11.0,82,0.00,,,0.06,meteohub,2013-01-29 03:22:00,
2013-01-28 22:27:00,39.4,34.3,28.17,NE,45,8.0,11.0,82,0.00,,,0.06,meteohub,2013-01-29 03:27:00,
2013-01-28 22:32:00,39.6,34.5,28.17,NW,315,4.0,11.0,82,0.00,,,0.06,meteohub,2013-01-29 03:32:00,
2013-01-28 22:37:00,39.6,34.5,28.17,SW,225,2.0,11.0,82,0.00,,,0.06,meteohub,2013-01-29 03:37:00,
2013-01-28 22:42:00,39.6,34.5,28.17,South,180,2.0,8.0,82,0.00,,,0.06,meteohub,2013-01-29 03:42:00,
2013-01-28 22:47:00,39.6,34.5,28.17,SW,225,4.0,4.0,82,0.00,,,0.06,meteohub,2013-01-29 03:47:00,
2013-01-28 22:52:00,39.6,34.5,28.17,WNW,293,3.0,6.0,82,0.00,,,0.06,meteohub,2013-01-29 03:52:00,
2013-01-28 22:57:00,39.7,34.7,28.17,NW,315,3.0,6.0,82,0.00,,,0.06,meteohub,2013-01-29 03:57:00,
2013-01-28 23:02:00,39.7,34.7,28.17,SW,225,2.0,6.0,82,0.00,,,0.06,meteohub,2013-01-29 04:02:00,
2013-01-28 23:07:00,39.6,34.5,28.17,NW,315,3.0,7.0,82,0.00,,,0.06,meteohub,2013-01-29 04:07:00,
2013-01-28 23:12:00,39.4,34.3,28.17,South,180,4.0,7.0,82,0.00,,,0.06,meteohub,2013-01-29 04:12:00,
2013-01-28 23:17:00,39.2,34.2,28.18,SE,135,5.0,7.0,82,0.00,,,0.06,meteohub,2013-01-29 04:17:00,
2013-01-28 23:22:00,39.2,34.2,28.18,South,180,3.0,7.0,82,0.00,,,0.06,meteohub,2013-01-29 04:22:00,
2013-01-28 23:27:00,39.2,34.2,28.18,South,180,1.0,7.0,82,0.00,,,0.06,meteohub,2013-01-29 04:27:00,
2013-01-28 23:32:00,39.2,34.2,28.19,SW,225,3.0,7.0,82,0.00,,,0.06,meteohub,2013-01-29 04:32:00,
2013-01-28 23:37:00,39.2,34.2,28.19,SW,225,2.0,4.0,82,0.00,,,0.06,meteohub,2013-01-29 04:37:00,
2013-01-28 23:42:00,39.6,34.9,28.19,West,270,2.0,6.0,83,0.00,,,0.06,meteohub,2013-01-29 04:42:00,
2013-01-28 23:47:00,40.1,35.4,28.19,NE,45,11.0,11.0,83,0.00,,,0.06,meteohub,2013-01-29 04:47:00,
2013-01-28 23:52:00,40.6,36.1,28.19,NE,45,11.0,11.0,84,0.00,,,0.06,meteohub,2013-01-29 04:52:00,
2013-01-28 23:57:00,41.2,36.1,28.19,NNE,23,13.0,13.0,82,0.00,,,0.06,meteohub,2013-01-29 04:57:00,